[[{"header":{"parameterUnit":"m.s-1","parameterCategory":1,"la1":30.2992,"la2":30.254,"lo1":-89.0895,"lo2":-89.0443,"dy":0.0025,"dx":0.0025,"nx":19,"ny":19,"refTime":"2026-03-06T03:00:00:Z","depth":0,"parameterNumber":2,"parameterNumberName":"U-component_of_WINDS"},"data":[0,0,0,-3.9925,-3.9927,-4.0016,-4.0016,-4.0128,-4.0129,0,0,0,0,0,0,0,0,0,0,0,-3.9899,-3.99,-3.9925,-3.9927,-4.0016,-4.0016,-4.0128,-4.0129,0,0,0,0,0,0,0,0,0,0,0,-3.9899,-3.99,-3.9901,-3.9927,-4.0016,-4.0016,-4.0128,-4.0061,0,0,0,0,0,0,0,0,0,0,-3.9975,-3.9952,-3.99,-3.9901,-3.9928,-4.0015,-4.0016,-4.0058,-4.0065,-4.0088,0,-4.0109,0,-4.0121,-4.0137,-4.0137,0,0,0,-3.9926,-3.9946,-3.997,-3.9901,-3.9929,-4.0015,-3.9975,-4.0062,-4.007,-4.0098,-4.0111,-4.0115,-4.0123,-4.0138,-4.0138,-4.0274,-4.0274,0,0,-3.9922,-3.9915,-3.9964,-3.9975,-3.9963,-3.9973,-3.9978,-4.0067,-4.0081,-4.0111,-4.0118,-4.0125,-4.0138,-4.0139,-4.0273,-4.0274,0,0,0,-3.9908,-3.9912,-3.9933,-3.997,-3.9986,-3.9975,-3.9982,-4.0077,-4.0084,-4.0119,-4.0126,-4.0139,-4.014,-4.0272,-4.0273,-4.0299,0,0,0,-3.9905,-3.9904,-3.9931,-3.9928,-3.9985,-4.0033,-3.9989,-4.0078,-4.0088,-4.0126,-4.0139,-4.0141,-4.0272,-4.0273,-4.0296,-4.0311,0,0,0,-3.9893,-3.9902,-3.9916,-3.9927,-3.9966,-4.0032,-4.0044,-4.008,-4.0093,-4.0137,-4.0142,-4.0271,-4.0273,-4.0294,-4.0307,-4.0343,0,0,0,-3.9879,-3.9937,-3.9916,-3.9984,-3.9965,-4.0048,-4.0044,-4.0106,-4.0147,-4.014,-4.0272,-4.0273,-4.0294,-4.0305,-4.0341,-4.037,-4.0382,0,0,-3.9949,-3.9945,-3.9986,-3.997,-4.0054,-4.0035,-4.0123,-4.0167,-4.0177,-4.0241,-4.0244,-4.0297,-4.0307,-4.0342,-4.0457,-4.0467,0,0,0,-4.0006,-4.0035,-4.0059,-4.0098,-4.0134,-4.0165,-4.0196,-4.0213,-4.0267,-4.0209,-4.0321,-4.0327,-4.0348,-4.0362,-4.037,-4.0387,-4.028,-4.028,-4.028,-4.0094,-4.0104,-4.0172,-4.0193,-4.0231,-4.0263,-4.0295,-4.0322,-4.0321,-4.0348,-4.0365,-4.0434,-4.045,-4.0456,-4.0474,-4.0384,-4.0384,-4.0384,-4.0384,-4.0195,-4.0236,-4.0235,-4.0299,-4.031,-4.0364,-4.0397,-4.0395,-4.0446,-4.0422,-4.044,-4.041,-4.0467,-4.0483,-4.0386,-4.0386,-4.0386,-4.0386,-4.0385,-4.0251,-4.0272,-4.0292,-4.035,-4.0394,-4.0414,-4.0463,-4.0471,-4.048,-4.0499,-4.0517,-4.0517,-4.0515,-4.0508,-4.0508,-4.0508,-4.0508,-4.0508,-4.0509,-4.03,-4.0322,-4.0362,-4.0406,-4.0432,-4.0468,-4.0501,-4.0527,-4.0557,-4.0559,-4.056,-4.0555,-4.0472,-4.0449,-4.0512,-4.0511,-4.0511,-4.0511,-4.051,-4.0393,-4.0374,-4.0436,-4.0463,-4.0514,-4.0556,-4.0567,-4.0619,-4.0642,-4.0665,-4.0658,-4.0596,-4.0592,-4.0586,-4.0567,-4.0657,-4.0657,-4.0657,-4.0657,-4.0438,-4.0439,-4.0504,-4.0545,-4.0587,-4.0604,-4.0673,-4.07,-4.0724,-4.0739,-4.0728,-4.0705,-4.0698,-4.0698,-4.0689,-4.0671,-4.0786,-4.0786,-4.0786,-4.0495,-4.05,-4.0557,-4.0582,-4.0623,-4.0657,-4.0722,-4.0768,-4.0793,-4.0792,-4.075,-4.0744,-4.0707,-4.0695,-4.0689,-4.0675,-4.0643,0,0]},{"header":{"parameterUnit":"m.s-1","parameterCategory":1,"la1":30.2992,"la2":30.254,"lo1":-89.0895,"lo2":-89.0443,"dy":0.0025,"dx":0.0025,"nx":19,"ny":19,"refTime":"2026-03-06T03:00:00:Z","depth":0,"parameterNumber":3,"parameterNumberName":"V-component_of_WINDS"},"data":[0,0,0,2.9721,2.9722,2.9795,2.9796,2.9888,2.9889,0,0,0,0,0,0,0,0,0,0,0,2.9698,2.9698,2.972,2.9722,2.9795,2.9796,2.9888,2.9889,0,0,0,0,0,0,0,0,0,0,0,2.9697,2.9698,2.9699,2.9722,2.9795,2.9796,2.9887,2.9833,0,0,0,0,0,0,0,0,0,0,2.9762,2.9739,2.9698,2.9699,2.9723,2.9795,2.9796,2.983,2.9836,2.9854,0,2.9869,0,2.988,2.9895,2.9895,0,0,0,2.9723,2.9734,2.9755,2.9699,2.9724,2.9795,2.9763,2.9834,2.984,2.9862,2.987,2.9874,2.9882,2.9895,2.9896,2.9997,2.9998,0,0,2.9719,2.971,2.9751,2.976,2.9748,2.976,2.9765,2.9838,2.9846,2.9871,2.9876,2.9883,2.9896,2.9896,2.9997,2.9997,0,0,0,2.9707,2.9707,2.9726,2.9756,2.9769,2.9762,2.9768,2.9843,2.985,2.9877,2.9884,2.9896,2.9897,2.9996,2.9997,3.0012,0,0,0,2.9704,2.97,2.9724,2.9719,2.9768,2.9807,2.9771,2.9845,2.9854,2.9884,2.9896,2.9898,2.9996,2.9997,3.001,3.002,0,0,0,2.9693,2.9698,2.9709,2.9719,2.975,2.9806,2.9817,2.9847,2.9858,2.9895,2.9899,2.9996,2.9997,3.0009,3.0018,3.0046,0,0,0,2.9678,2.9718,2.9709,2.9757,2.9749,2.9814,2.9817,2.9865,2.9898,2.9897,2.9996,2.9997,3.0008,3.0017,3.0045,3.007,3.0079,0,0,2.9724,2.9723,2.9753,2.9746,2.9811,2.9804,2.987,2.9908,2.9919,2.9971,2.9973,3.0011,3.0018,3.0046,3.013,3.0137,0,0,0,2.9764,2.9785,2.9804,2.9836,2.9867,2.9896,2.9925,2.994,2.9984,2.9944,3.0028,3.0032,3.0049,3.0062,3.0068,3.0084,3.0002,3.0002,3.0002,2.9815,2.9829,2.9879,2.9903,2.9934,2.9966,2.9993,3.0018,3.0021,3.0041,3.0057,3.0106,3.012,3.0124,3.0141,3.0069,3.0069,3.0069,3.0069,2.9885,2.9918,2.9924,2.9975,2.999,3.0033,3.0066,3.0067,3.0111,3.0094,3.011,3.0092,3.0132,3.0148,3.0071,3.007,3.007,3.007,3.007,2.9922,2.994,2.9959,3.0009,3.0046,3.0068,3.0111,3.0122,3.0132,3.0148,3.0168,3.0167,3.0171,3.0156,3.0156,3.0157,3.0157,3.0157,3.0157,2.9953,2.9973,3.0008,3.0047,3.0071,3.0104,3.0138,3.0161,3.0191,3.0196,3.0196,3.0199,3.0132,3.0117,3.016,3.0159,3.0159,3.0159,3.0158,3.0022,3.0009,3.0062,3.0086,3.0135,3.0173,3.0187,3.0236,3.0257,3.0278,3.0278,3.0226,3.0226,3.0222,3.0209,3.0273,3.0273,3.0273,3.0273,3.0054,3.0056,3.0115,3.0153,3.0192,3.0212,3.0274,3.0302,3.0328,3.0343,3.0335,3.0318,3.0313,3.0316,3.031,3.0298,3.0384,3.0384,3.0384,3.0099,3.0105,3.0155,3.0182,3.0222,3.0256,3.0315,3.036,3.0387,3.0389,3.0355,3.035,3.0324,3.0314,3.0315,3.0304,3.0283,0,0]}]]